Year,Month,Day,Hour,Minute,Value (Times are PST for temperature in C)
2021,08,24,00,00,12.20
2021,08,24,00,01,12.20
2021,08,24,00,02,12.20
2021,08,24,00,03,12.20
2021,08,24,00,04,12.20
2021,08,24,00,05,12.20
2021,08,24,00,06,12.20
2021,08,24,00,07,12.20
2021,08,24,00,08,12.10
2021,08,24,00,09,12.10
2021,08,24,00,10,12.10
2021,08,24,00,11,12.10
2021,08,24,00,12,12.10
2021,08,24,00,13,12.10
2021,08,24,00,14,12.10
2021,08,24,00,15,12.10
2021,08,24,00,16,12.00
2021,08,24,00,17,12.00
2021,08,24,00,18,12.00
2021,08,24,00,19,12.00
2021,08,24,00,20,12.00
2021,08,24,00,21,12.00
2021,08,24,00,22,12.00
2021,08,24,00,23,12.00
2021,08,24,00,24,12.00
2021,08,24,00,25,12.00
2021,08,24,00,26,12.00
2021,08,24,00,27,12.00
2021,08,24,00,28,12.00
2021,08,24,00,29,12.00
2021,08,24,00,30,11.90
2021,08,24,00,31,11.90
2021,08,24,00,32,11.90
2021,08,24,00,33,12.00
2021,08,24,00,34,11.90
2021,08,24,00,35,11.90
2021,08,24,00,36,12.00
2021,08,24,00,37,11.90
2021,08,24,00,38,11.90
2021,08,24,00,39,11.90
2021,08,24,00,40,11.90
2021,08,24,00,41,11.90
2021,08,24,00,42,11.90
2021,08,24,00,43,11.90
2021,08,24,00,44,11.90
2021,08,24,00,45,11.90
2021,08,24,00,46,11.90
2021,08,24,00,47,11.90
2021,08,24,00,48,11.90
2021,08,24,00,49,11.90
2021,08,24,00,50,11.90
2021,08,24,00,51,11.80
2021,08,24,00,52,11.80
2021,08,24,00,53,11.80
2021,08,24,00,54,11.70
2021,08,24,00,55,11.70
2021,08,24,00,56,11.70
2021,08,24,00,57,11.70
2021,08,24,00,58,11.60
2021,08,24,00,59,11.60
2021,08,24,01,00,11.60
2021,08,24,01,01,11.60
2021,08,24,01,02,11.50
2021,08,24,01,03,11.50
2021,08,24,01,04,11.50
2021,08,24,01,05,11.40
2021,08,24,01,06,11.40
2021,08,24,01,07,11.40
2021,08,24,01,08,11.40
2021,08,24,01,09,11.40
2021,08,24,01,10,11.40
2021,08,24,01,11,11.30
2021,08,24,01,12,11.30
2021,08,24,01,13,11.30
2021,08,24,01,14,11.30
2021,08,24,01,15,11.30
2021,08,24,01,16,11.30
2021,08,24,01,17,11.30
2021,08,24,01,18,11.30
2021,08,24,01,19,11.20
2021,08,24,01,20,11.20
2021,08,24,01,21,11.20
2021,08,24,01,22,11.20
2021,08,24,01,23,11.10
2021,08,24,01,24,11.10
2021,08,24,01,25,11.10
2021,08,24,01,26,11.10
2021,08,24,01,27,11.10
2021,08,24,01,28,11.10
2021,08,24,01,29,11.10
2021,08,24,01,30,11.10
2021,08,24,01,31,11.00
2021,08,24,01,32,11.10
2021,08,24,01,33,11.00
2021,08,24,01,34,11.00
2021,08,24,01,35,11.00
2021,08,24,01,36,11.00
2021,08,24,01,37,11.00
2021,08,24,01,38,11.00
2021,08,24,01,39,11.00
2021,08,24,01,40,11.00
2021,08,24,01,41,10.90
2021,08,24,01,42,10.90
2021,08,24,01,43,10.90
2021,08,24,01,44,10.90
2021,08,24,01,45,10.90
2021,08,24,01,46,10.90
2021,08,24,01,47,10.90
2021,08,24,01,48,10.90
2021,08,24,01,49,10.90
2021,08,24,01,50,10.90
2021,08,24,01,51,10.90
2021,08,24,01,52,10.90
2021,08,24,01,53,10.90
2021,08,24,01,54,10.90
2021,08,24,01,55,10.90
2021,08,24,01,56,10.90
2021,08,24,01,57,10.90
2021,08,24,01,58,10.90
2021,08,24,01,59,10.90
2021,08,24,02,00,10.90
2021,08,24,02,01,10.90
2021,08,24,02,02,10.90
2021,08,24,02,03,10.90
2021,08,24,02,04,10.80
2021,08,24,02,05,10.80
2021,08,24,02,06,10.80
2021,08,24,02,07,10.80
2021,08,24,02,08,10.80
2021,08,24,02,09,10.80
2021,08,24,02,10,10.80
2021,08,24,02,11,10.80
2021,08,24,02,12,10.80
2021,08,24,02,13,10.80
2021,08,24,02,14,10.80
2021,08,24,02,15,10.80
2021,08,24,02,16,10.70
2021,08,24,02,17,10.70
2021,08,24,02,18,10.70
2021,08,24,02,19,10.70
2021,08,24,02,20,10.70
2021,08,24,02,21,10.70
2021,08,24,02,22,10.70
2021,08,24,02,23,10.70
2021,08,24,02,24,10.60
2021,08,24,02,25,10.60
2021,08,24,02,26,10.60
2021,08,24,02,27,10.60
2021,08,24,02,28,10.60
2021,08,24,02,29,10.60
2021,08,24,02,30,10.60
2021,08,24,02,31,10.60
2021,08,24,02,32,10.60
2021,08,24,02,33,10.60
2021,08,24,02,34,10.60
2021,08,24,02,35,10.60
2021,08,24,02,36,10.60
2021,08,24,02,37,10.60
2021,08,24,02,38,10.50
2021,08,24,02,39,10.50
2021,08,24,02,40,10.50
2021,08,24,02,41,10.40
2021,08,24,02,42,10.40
2021,08,24,02,43,10.40
2021,08,24,02,44,10.40
2021,08,24,02,45,10.40
2021,08,24,02,46,10.40
2021,08,24,02,47,10.30
2021,08,24,02,48,10.30
2021,08,24,02,49,10.30
2021,08,24,02,50,10.30
2021,08,24,02,51,10.20
2021,08,24,02,52,10.20
2021,08,24,02,53,10.20
2021,08,24,02,54,10.20
2021,08,24,02,55,10.20
2021,08,24,02,56,10.10
2021,08,24,02,57,10.10
2021,08,24,02,58,10.10
2021,08,24,02,59,10.10
2021,08,24,03,00,10.00
2021,08,24,03,01,10.00
2021,08,24,03,02,10.10
2021,08,24,03,03,10.00
2021,08,24,03,04,10.00
2021,08,24,03,05,10.00
2021,08,24,03,06,10.00
2021,08,24,03,07,10.00
2021,08,24,03,08,10.00
2021,08,24,03,09,10.00
2021,08,24,03,10,10.00
2021,08,24,03,11,10.00
2021,08,24,03,12,10.00
2021,08,24,03,13,10.00
2021,08,24,03,14,10.10
2021,08,24,03,15,10.10
2021,08,24,03,16,10.10
2021,08,24,03,17,10.10
2021,08,24,03,18,10.10
2021,08,24,03,19,10.10
2021,08,24,03,20,10.10
2021,08,24,03,21,10.10
2021,08,24,03,22,10.20
2021,08,24,03,23,10.20
2021,08,24,03,24,10.20
2021,08,24,03,25,10.20
2021,08,24,03,26,10.20
2021,08,24,03,27,10.20
2021,08,24,03,28,10.20
2021,08,24,03,29,10.20
2021,08,24,03,30,10.20
2021,08,24,03,31,10.20
2021,08,24,03,32,10.20
2021,08,24,03,33,10.20
2021,08,24,03,34,10.20
2021,08,24,03,35,10.20
2021,08,24,03,36,10.10
2021,08,24,03,37,10.10
2021,08,24,03,38,10.10
2021,08,24,03,39,10.10
2021,08,24,03,40,10.10
2021,08,24,03,41,10.10
2021,08,24,03,42,10.10
2021,08,24,03,43,10.10
2021,08,24,03,44,10.10
2021,08,24,03,45,10.10
2021,08,24,03,46,10.10
2021,08,24,03,47,10.00
2021,08,24,03,48,10.00
2021,08,24,03,49,10.00
2021,08,24,03,50,10.00
2021,08,24,03,51,9.90
2021,08,24,03,52,9.90
2021,08,24,03,53,9.90
2021,08,24,03,54,9.90
2021,08,24,03,55,9.90
2021,08,24,03,56,9.90
2021,08,24,03,57,9.90
2021,08,24,03,58,9.90
2021,08,24,03,59,9.90
2021,08,24,04,00,9.90
2021,08,24,04,01,10.00
2021,08,24,04,02,10.00
2021,08,24,04,03,10.10
2021,08,24,04,04,10.10
2021,08,24,04,05,10.20
2021,08,24,04,06,10.20
2021,08,24,04,07,10.30
2021,08,24,04,08,10.30
2021,08,24,04,09,10.30
2021,08,24,04,10,10.30
2021,08,24,04,11,10.40
2021,08,24,04,12,10.30
2021,08,24,04,13,10.30
2021,08,24,04,14,10.30
2021,08,24,04,15,10.30
2021,08,24,04,16,10.30
2021,08,24,04,17,10.20
2021,08,24,04,18,10.20
2021,08,24,04,19,10.20
2021,08,24,04,20,10.20
2021,08,24,04,21,10.10
2021,08,24,04,22,10.10
2021,08,24,04,23,10.10
2021,08,24,04,24,10.00
2021,08,24,04,25,10.00
2021,08,24,04,26,10.00
2021,08,24,04,27,9.90
2021,08,24,04,28,9.90
2021,08,24,04,29,9.90
2021,08,24,04,30,9.80
2021,08,24,04,31,9.80
2021,08,24,04,32,9.80
2021,08,24,04,33,9.80
2021,08,24,04,34,9.80
2021,08,24,04,35,9.70
2021,08,24,04,36,9.70
2021,08,24,04,37,9.70
2021,08,24,04,38,9.70
2021,08,24,04,39,9.70
2021,08,24,04,40,9.70
2021,08,24,04,41,9.60
2021,08,24,04,42,9.60
2021,08,24,04,43,9.60
2021,08,24,04,44,9.60
2021,08,24,04,45,9.60
2021,08,24,04,46,9.60
2021,08,24,04,47,9.50
2021,08,24,04,48,9.50
2021,08,24,04,49,9.50
2021,08,24,04,50,9.50
2021,08,24,04,51,9.50
2021,08,24,04,52,9.50
2021,08,24,04,53,9.50
2021,08,24,04,54,9.50
2021,08,24,04,55,9.50
2021,08,24,04,56,9.50
2021,08,24,04,57,9.40
2021,08,24,04,58,9.40
2021,08,24,04,59,9.40
2021,08,24,05,00,9.40
2021,08,24,05,01,9.40
2021,08,24,05,02,9.40
2021,08,24,05,03,9.40
2021,08,24,05,04,9.40
2021,08,24,05,05,9.40
2021,08,24,05,06,9.40
2021,08,24,05,07,9.40
2021,08,24,05,08,9.40
2021,08,24,05,09,9.40
2021,08,24,05,10,9.40
2021,08,24,05,11,9.40
2021,08,24,05,12,9.40
2021,08,24,05,13,9.40
2021,08,24,05,14,9.40
2021,08,24,05,15,9.40
2021,08,24,05,16,9.40
2021,08,24,05,17,9.40
2021,08,24,05,18,9.40
2021,08,24,05,19,9.40
2021,08,24,05,20,9.40
2021,08,24,05,21,9.40
2021,08,24,05,22,9.40
2021,08,24,05,23,9.40
2021,08,24,05,24,9.30
2021,08,24,05,25,9.30
2021,08,24,05,26,9.30
2021,08,24,05,27,9.30
2021,08,24,05,28,9.30
2021,08,24,05,29,9.20
2021,08,24,05,30,9.20
2021,08,24,05,31,9.20
2021,08,24,05,32,9.20
2021,08,24,05,33,9.10
2021,08,24,05,34,9.10
2021,08,24,05,35,9.10
2021,08,24,05,36,9.10
2021,08,24,05,37,9.10
2021,08,24,05,38,9.00
2021,08,24,05,39,9.00
2021,08,24,05,40,9.00
2021,08,24,05,41,9.00
2021,08,24,05,42,9.00
2021,08,24,05,43,8.90
2021,08,24,05,44,8.90
2021,08,24,05,45,8.90
2021,08,24,05,46,8.90
2021,08,24,05,47,8.90
2021,08,24,05,48,8.90
2021,08,24,05,49,8.90
2021,08,24,05,50,8.90
2021,08,24,05,51,8.90
2021,08,24,05,52,8.90
2021,08,24,05,53,8.90
2021,08,24,05,54,8.80
2021,08,24,05,55,8.80
2021,08,24,05,56,8.80
2021,08,24,05,57,8.80
2021,08,24,05,58,8.80
2021,08,24,05,59,8.90
2021,08,24,06,00,8.90
2021,08,24,06,01,8.90
2021,08,24,06,02,8.90
2021,08,24,06,03,8.90
2021,08,24,06,04,8.90
2021,08,24,06,05,8.90
2021,08,24,06,06,8.90
2021,08,24,06,07,8.90
2021,08,24,06,08,8.90
2021,08,24,06,09,8.90
2021,08,24,06,10,8.90
2021,08,24,06,11,8.90
2021,08,24,06,12,8.90
2021,08,24,06,13,8.90
2021,08,24,06,14,8.90
2021,08,24,06,15,8.90
2021,08,24,06,16,8.90
2021,08,24,06,17,8.90
2021,08,24,06,18,8.90
2021,08,24,06,19,8.90
2021,08,24,06,20,8.90
2021,08,24,06,21,9.00
2021,08,24,06,22,8.90
2021,08,24,06,23,8.90
2021,08,24,06,24,8.90
2021,08,24,06,25,8.90
2021,08,24,06,26,8.90
2021,08,24,06,27,8.80
2021,08,24,06,28,8.80
2021,08,24,06,29,8.80
2021,08,24,06,30,8.80
2021,08,24,06,31,8.80
2021,08,24,06,32,8.80
2021,08,24,06,33,8.90
2021,08,24,06,34,8.90
2021,08,24,06,35,8.90
2021,08,24,06,36,8.80
2021,08,24,06,37,8.80
2021,08,24,06,38,8.80
2021,08,24,06,39,8.80
2021,08,24,06,40,8.80
2021,08,24,06,41,8.80
2021,08,24,06,42,8.80
2021,08,24,06,43,8.80
2021,08,24,06,44,8.80
2021,08,24,06,45,8.80
2021,08,24,06,46,8.80
2021,08,24,06,47,8.80
2021,08,24,06,48,8.80
2021,08,24,06,49,8.80
2021,08,24,06,50,8.80
2021,08,24,06,51,8.80
2021,08,24,06,52,8.80
2021,08,24,06,53,8.80
2021,08,24,06,54,8.80
2021,08,24,06,55,8.80
2021,08,24,06,56,8.80
2021,08,24,06,57,8.90
2021,08,24,06,58,8.90
2021,08,24,06,59,8.90
2021,08,24,07,00,8.90
2021,08,24,07,01,8.90
2021,08,24,07,02,9.00
2021,08,24,07,03,9.00
2021,08,24,07,04,9.10
2021,08,24,07,05,9.10
2021,08,24,07,06,9.10
2021,08,24,07,07,9.10
2021,08,24,07,08,9.10
2021,08,24,07,09,9.20
2021,08,24,07,10,9.20
2021,08,24,07,11,9.20
2021,08,24,07,12,9.30
2021,08,24,07,13,9.30
2021,08,24,07,14,9.30
2021,08,24,07,15,9.40
2021,08,24,07,16,9.40
2021,08,24,07,17,9.40
2021,08,24,07,18,9.50
2021,08,24,07,19,9.50
2021,08,24,07,20,9.60
2021,08,24,07,21,9.60
2021,08,24,07,22,9.70
2021,08,24,07,23,9.70
2021,08,24,07,24,9.80
2021,08,24,07,25,9.80
2021,08,24,07,26,9.80
2021,08,24,07,27,9.90
2021,08,24,07,28,10.00
2021,08,24,07,29,10.00
2021,08,24,07,30,10.10
2021,08,24,07,31,10.20
2021,08,24,07,32,10.20
2021,08,24,07,33,10.30
2021,08,24,07,34,10.40
2021,08,24,07,35,10.40
2021,08,24,07,36,10.40
2021,08,24,07,37,10.50
2021,08,24,07,38,10.60
2021,08,24,07,39,10.60
2021,08,24,07,40,10.60
2021,08,24,07,41,10.70
2021,08,24,07,42,10.70
2021,08,24,07,43,10.80
2021,08,24,07,44,10.90
2021,08,24,07,45,10.90
2021,08,24,07,46,11.00
2021,08,24,07,47,11.00
2021,08,24,07,48,11.10
2021,08,24,07,49,11.10
2021,08,24,07,50,11.20
2021,08,24,07,51,11.20
2021,08,24,07,52,11.30
2021,08,24,07,53,11.30
2021,08,24,07,54,11.30
2021,08,24,07,55,11.40
2021,08,24,07,56,11.40
2021,08,24,07,57,11.50
2021,08,24,07,58,11.60
2021,08,24,07,59,11.70
2021,08,24,08,00,11.80
2021,08,24,08,01,11.90
2021,08,24,08,02,11.90
2021,08,24,08,03,11.90
2021,08,24,08,04,12.00
2021,08,24,08,05,12.10
2021,08,24,08,06,12.10
2021,08,24,08,07,12.10
2021,08,24,08,08,12.10
2021,08,24,08,09,12.10
2021,08,24,08,10,12.20
2021,08,24,08,11,12.20
2021,08,24,08,12,12.20
2021,08,24,08,13,12.20
2021,08,24,08,14,12.30
2021,08,24,08,15,12.30
2021,08,24,08,16,12.30
2021,08,24,08,17,12.30
2021,08,24,08,18,12.30
2021,08,24,08,19,12.30
2021,08,24,08,20,12.30
2021,08,24,08,21,12.40
2021,08,24,08,22,12.30
2021,08,24,08,23,12.30
2021,08,24,08,24,12.30
2021,08,24,08,25,12.30
2021,08,24,08,26,12.30
2021,08,24,08,27,12.30
2021,08,24,08,28,12.30
2021,08,24,08,29,12.30
2021,08,24,08,30,12.30
2021,08,24,08,31,12.30
2021,08,24,08,32,12.30
2021,08,24,08,33,12.30
2021,08,24,08,34,12.30
2021,08,24,08,35,12.30
2021,08,24,08,36,12.30
2021,08,24,08,37,12.30
2021,08,24,08,38,12.30
2021,08,24,08,39,12.30
2021,08,24,08,40,12.30
2021,08,24,08,41,12.30
2021,08,24,08,42,12.30
2021,08,24,08,43,12.30
2021,08,24,08,44,12.40
2021,08,24,08,45,12.40
2021,08,24,08,46,12.40
2021,08,24,08,47,12.40
2021,08,24,08,48,12.40
2021,08,24,08,49,12.40
2021,08,24,08,50,12.50
2021,08,24,08,51,12.50
2021,08,24,08,52,12.50
2021,08,24,08,53,12.50
2021,08,24,08,54,12.50
2021,08,24,08,55,12.60
2021,08,24,08,56,12.60
2021,08,24,08,57,12.70
2021,08,24,08,58,12.70
2021,08,24,08,59,12.70
2021,08,24,09,00,12.70
2021,08,24,09,01,12.70
2021,08,24,09,02,12.80
2021,08,24,09,03,12.80
2021,08,24,09,04,12.90
2021,08,24,09,05,12.90
2021,08,24,09,06,12.90
2021,08,24,09,07,13.00
2021,08,24,09,08,13.00
2021,08,24,09,09,13.00
2021,08,24,09,10,13.00
2021,08,24,09,11,13.10
2021,08,24,09,12,13.10
2021,08,24,09,13,13.10
2021,08,24,09,14,13.10
2021,08,24,09,15,13.20
2021,08,24,09,16,13.20
2021,08,24,09,17,13.20
2021,08,24,09,18,13.20
2021,08,24,09,19,13.20
2021,08,24,09,20,13.30
2021,08,24,09,21,13.30
2021,08,24,09,22,13.30
2021,08,24,09,23,13.30
2021,08,24,09,24,13.40
2021,08,24,09,25,13.40
2021,08,24,09,26,13.50
2021,08,24,09,27,13.50
2021,08,24,09,28,13.50
2021,08,24,09,29,13.60
2021,08,24,09,30,13.60
2021,08,24,09,31,13.60
2021,08,24,09,32,13.60
2021,08,24,09,33,13.60
2021,08,24,09,34,13.60
2021,08,24,09,35,13.70
2021,08,24,09,36,13.70
2021,08,24,09,37,13.80
2021,08,24,09,38,13.80
2021,08,24,09,39,13.90
2021,08,24,09,40,13.90
2021,08,24,09,41,13.90
2021,08,24,09,42,13.90
2021,08,24,09,43,13.90
2021,08,24,09,44,13.90
2021,08,24,09,45,13.90
2021,08,24,09,46,14.00
2021,08,24,09,47,14.00
2021,08,24,09,48,14.00
2021,08,24,09,49,14.00
2021,08,24,09,50,14.00
2021,08,24,09,51,14.00
2021,08,24,09,52,14.10
2021,08,24,09,53,14.10
2021,08,24,09,54,14.10
2021,08,24,09,55,14.20
2021,08,24,09,56,14.20
2021,08,24,09,57,14.20
2021,08,24,09,58,14.20
2021,08,24,09,59,14.20
2021,08,24,10,00,14.30
2021,08,24,10,01,14.30
2021,08,24,10,02,14.30
2021,08,24,10,03,14.40
2021,08,24,10,04,14.50
2021,08,24,10,05,14.50
2021,08,24,10,06,14.50
2021,08,24,10,07,14.60
2021,08,24,10,08,14.60
2021,08,24,10,09,14.70
2021,08,24,10,10,14.80
2021,08,24,10,11,14.80
2021,08,24,10,12,14.80
2021,08,24,10,13,14.90
2021,08,24,10,14,14.90
2021,08,24,10,15,14.90
2021,08,24,10,16,15.00
2021,08,24,10,17,15.00
2021,08,24,10,18,15.10
2021,08,24,10,19,15.10
2021,08,24,10,20,15.20
2021,08,24,10,21,15.30
2021,08,24,10,22,15.30
2021,08,24,10,23,15.40
2021,08,24,10,24,15.40
2021,08,24,10,25,15.40
2021,08,24,10,26,15.40
2021,08,24,10,27,15.40
2021,08,24,10,28,15.40
2021,08,24,10,29,15.30
2021,08,24,10,30,15.30
2021,08,24,10,31,15.40
2021,08,24,10,32,15.40
2021,08,24,10,33,15.40
2021,08,24,10,34,15.50
2021,08,24,10,35,15.60
2021,08,24,10,36,15.70
2021,08,24,10,37,15.70
2021,08,24,10,38,15.80
2021,08,24,10,39,15.80
2021,08,24,10,40,15.90
2021,08,24,10,41,16.00
2021,08,24,10,42,16.10
2021,08,24,10,43,16.10
2021,08,24,10,44,16.20
2021,08,24,10,45,16.30
2021,08,24,10,46,16.40
2021,08,24,10,47,16.50
2021,08,24,10,48,16.60
2021,08,24,10,49,16.60
2021,08,24,10,50,16.70
2021,08,24,10,51,16.80
2021,08,24,10,52,16.90
2021,08,24,10,53,17.00
2021,08,24,10,54,17.00
2021,08,24,10,55,17.00
2021,08,24,10,56,17.00
2021,08,24,10,57,17.00
2021,08,24,10,58,17.00
2021,08,24,10,59,17.00
2021,08,24,11,00,17.10
2021,08,24,11,01,17.10
2021,08,24,11,02,17.20
2021,08,24,11,03,17.20
2021,08,24,11,04,17.20
2021,08,24,11,05,17.20
2021,08,24,11,06,17.30
2021,08,24,11,07,17.40
2021,08,24,11,08,17.40
2021,08,24,11,09,17.50
2021,08,24,11,10,17.60
2021,08,24,11,11,17.70
2021,08,24,11,12,17.70
2021,08,24,11,13,17.60
2021,08,24,11,14,17.60
2021,08,24,11,15,17.60
2021,08,24,11,16,17.60
2021,08,24,11,17,17.70
2021,08,24,11,18,17.60
2021,08,24,11,19,17.60
2021,08,24,11,20,17.60
2021,08,24,11,21,17.50
2021,08,24,11,22,17.40
2021,08,24,11,23,17.40
2021,08,24,11,24,17.30
2021,08,24,11,25,17.30
2021,08,24,11,26,17.30
2021,08,24,11,27,17.30
2021,08,24,11,28,17.30
2021,08,24,11,29,17.40
2021,08,24,11,30,17.40
2021,08,24,11,31,17.40
2021,08,24,11,32,17.40
2021,08,24,11,33,17.40
2021,08,24,11,34,17.40
2021,08,24,11,35,17.30
2021,08,24,11,36,17.30
2021,08,24,11,37,17.30
2021,08,24,11,38,17.30
2021,08,24,11,39,17.30
2021,08,24,11,40,17.40
2021,08,24,11,41,17.40
2021,08,24,11,42,17.40
2021,08,24,11,43,17.50
2021,08,24,11,44,17.50
2021,08,24,11,45,17.50
2021,08,24,11,46,17.60
2021,08,24,11,47,17.60
2021,08,24,11,48,17.60
2021,08,24,11,49,17.70
2021,08,24,11,50,17.80
2021,08,24,11,51,17.80
2021,08,24,11,52,17.80
2021,08,24,11,53,17.80
2021,08,24,11,54,17.80
2021,08,24,11,55,17.70
2021,08,24,11,56,17.60
2021,08,24,11,57,17.60
2021,08,24,11,58,17.60
2021,08,24,11,59,17.60
2021,08,24,12,00,17.60
2021,08,24,12,01,17.70
2021,08,24,12,02,17.70
2021,08,24,12,03,17.80
2021,08,24,12,04,17.80
2021,08,24,12,05,17.90
2021,08,24,12,06,17.90
2021,08,24,12,07,17.90
2021,08,24,12,08,17.90
2021,08,24,12,09,17.90
2021,08,24,12,10,17.90
2021,08,24,12,11,17.90
2021,08,24,12,12,17.90
2021,08,24,12,13,18.00
2021,08,24,12,14,18.00
2021,08,24,12,15,18.00
2021,08,24,12,16,18.00
2021,08,24,12,17,18.00
2021,08,24,12,18,17.90
2021,08,24,12,19,17.90
2021,08,24,12,20,17.80
2021,08,24,12,21,17.80
2021,08,24,12,22,17.70
2021,08,24,12,23,17.70
2021,08,24,12,24,17.70
2021,08,24,12,25,17.70
2021,08,24,12,26,17.70
2021,08,24,12,27,17.70
2021,08,24,12,28,17.80
2021,08,24,12,29,17.80
2021,08,24,12,30,17.80
2021,08,24,12,31,17.80
2021,08,24,12,32,17.90
2021,08,24,12,33,17.90
2021,08,24,12,34,17.90
2021,08,24,12,35,17.90
2021,08,24,12,36,17.90
2021,08,24,12,37,18.00
2021,08,24,12,38,18.10
2021,08,24,12,39,18.10
2021,08,24,12,40,18.20
2021,08,24,12,41,18.30
2021,08,24,12,42,18.30
2021,08,24,12,43,18.30
2021,08,24,12,44,18.30
2021,08,24,12,45,18.30
2021,08,24,12,46,18.30
2021,08,24,12,47,18.30
2021,08,24,12,48,18.20
2021,08,24,12,49,18.20
2021,08,24,12,50,18.10
2021,08,24,12,51,18.10
2021,08,24,12,52,18.10
2021,08,24,12,53,18.10
2021,08,24,12,54,18.20
2021,08,24,12,55,18.10
2021,08,24,12,56,18.10
2021,08,24,12,57,18.20
2021,08,24,12,58,18.20
2021,08,24,12,59,18.20
2021,08,24,13,00,18.20
2021,08,24,13,01,18.30
2021,08,24,13,02,18.30
2021,08,24,13,03,18.40
2021,08,24,13,04,18.50
2021,08,24,13,05,18.60
2021,08,24,13,06,18.60
2021,08,24,13,07,18.70
2021,08,24,13,08,18.80
2021,08,24,13,09,18.90
2021,08,24,13,10,18.90
2021,08,24,13,11,18.90
2021,08,24,13,12,19.00
2021,08,24,13,13,19.10
2021,08,24,13,14,19.00
2021,08,24,13,15,19.00
2021,08,24,13,16,19.00
2021,08,24,13,17,18.90
2021,08,24,13,18,18.90
2021,08,24,13,19,18.90
2021,08,24,13,20,19.00
2021,08,24,13,21,19.00
2021,08,24,13,22,19.00
2021,08,24,13,23,19.10
2021,08,24,13,24,19.10
2021,08,24,13,25,19.10
2021,08,24,13,26,19.10
2021,08,24,13,27,19.10
2021,08,24,13,28,19.10
2021,08,24,13,29,19.10
2021,08,24,13,30,19.10
2021,08,24,13,31,19.10
2021,08,24,13,32,19.20
2021,08,24,13,33,19.20
2021,08,24,13,34,19.20
2021,08,24,13,35,19.30
2021,08,24,13,36,19.30
2021,08,24,13,37,19.30
2021,08,24,13,38,19.30
2021,08,24,13,39,19.40
2021,08,24,13,40,19.40
2021,08,24,13,41,19.40
2021,08,24,13,42,19.40
2021,08,24,13,43,19.40
2021,08,24,13,44,19.50
2021,08,24,13,45,19.60
2021,08,24,13,46,19.60
2021,08,24,13,47,19.50
2021,08,24,13,48,19.50
2021,08,24,13,49,19.40
2021,08,24,13,50,19.40
2021,08,24,13,51,19.40
2021,08,24,13,52,19.40
2021,08,24,13,53,19.40
2021,08,24,13,54,19.40
2021,08,24,13,55,19.40
2021,08,24,13,56,19.40
2021,08,24,13,57,19.50
2021,08,24,13,58,19.60
2021,08,24,13,59,19.60
2021,08,24,14,00,19.70
2021,08,24,14,01,19.80
2021,08,24,14,02,19.80
2021,08,24,14,03,19.90
2021,08,24,14,04,19.90
2021,08,24,14,05,19.80
2021,08,24,14,06,19.80
2021,08,24,14,07,19.90
2021,08,24,14,08,19.90
2021,08,24,14,09,19.90
2021,08,24,14,10,19.90
2021,08,24,14,11,19.90
2021,08,24,14,12,19.90
2021,08,24,14,13,19.80
2021,08,24,14,14,19.80
2021,08,24,14,15,19.80
2021,08,24,14,16,19.90
2021,08,24,14,17,19.90
2021,08,24,14,18,19.90
2021,08,24,14,19,19.80
2021,08,24,14,20,19.80
2021,08,24,14,21,19.80
2021,08,24,14,22,19.80
2021,08,24,14,23,19.70
2021,08,24,14,24,19.70
2021,08,24,14,25,19.60
2021,08,24,14,26,19.60
2021,08,24,14,27,19.60
2021,08,24,14,28,19.60
2021,08,24,14,29,19.60
2021,08,24,14,30,19.70
2021,08,24,14,31,19.70
2021,08,24,14,32,19.70
2021,08,24,14,33,19.80
2021,08,24,14,34,19.80
2021,08,24,14,35,19.80
2021,08,24,14,36,19.90
2021,08,24,14,37,19.90
2021,08,24,14,38,19.90
2021,08,24,14,39,19.90
2021,08,24,14,40,20.00
2021,08,24,14,41,20.10
2021,08,24,14,42,20.10
2021,08,24,14,43,20.10
2021,08,24,14,44,20.10
2021,08,24,14,45,20.10
2021,08,24,14,46,20.10
2021,08,24,14,47,20.10
2021,08,24,14,48,20.10
2021,08,24,14,49,20.10
2021,08,24,14,50,20.10
2021,08,24,14,51,20.10
2021,08,24,14,52,20.10
2021,08,24,14,53,20.10
2021,08,24,14,54,20.10
2021,08,24,14,55,20.10
2021,08,24,14,56,20.20
2021,08,24,14,57,20.20
2021,08,24,14,58,20.20
2021,08,24,14,59,20.30
2021,08,24,15,00,20.30
2021,08,24,15,01,20.30
2021,08,24,15,02,20.30
2021,08,24,15,03,20.20
2021,08,24,15,04,20.20
2021,08,24,15,05,20.20
2021,08,24,15,06,20.20
2021,08,24,15,07,20.10
2021,08,24,15,08,20.20
2021,08,24,15,09,20.20
2021,08,24,15,10,20.20
2021,08,24,15,11,20.30
2021,08,24,15,12,20.30
2021,08,24,15,13,20.30
2021,08,24,15,14,20.30
2021,08,24,15,15,20.30
2021,08,24,15,16,20.30
2021,08,24,15,17,20.30
2021,08,24,15,18,20.30
2021,08,24,15,19,20.30
2021,08,24,15,20,20.30
2021,08,24,15,21,20.30
2021,08,24,15,22,20.30
2021,08,24,15,23,20.40
2021,08,24,15,24,20.40
2021,08,24,15,25,20.40
2021,08,24,15,26,20.40
2021,08,24,15,27,20.40
2021,08,24,15,28,20.30
2021,08,24,15,29,20.30
2021,08,24,15,30,20.30
2021,08,24,15,31,20.30
2021,08,24,15,32,20.30
2021,08,24,15,33,20.30
2021,08,24,15,34,20.20
2021,08,24,15,35,20.20
2021,08,24,15,36,20.20
2021,08,24,15,37,20.20
2021,08,24,15,38,20.20
2021,08,24,15,39,20.20
2021,08,24,15,40,20.20
2021,08,24,15,41,20.20
2021,08,24,15,42,20.30
2021,08,24,15,43,20.30
2021,08,24,15,44,20.40
2021,08,24,15,45,20.40
2021,08,24,15,46,20.50
2021,08,24,15,47,20.60
2021,08,24,15,48,20.70
2021,08,24,15,49,20.80
2021,08,24,15,50,20.80
2021,08,24,15,51,20.80
2021,08,24,15,52,20.80
2021,08,24,15,53,20.80
2021,08,24,15,54,20.80
2021,08,24,15,55,20.70
2021,08,24,15,56,20.70
2021,08,24,15,57,20.70
2021,08,24,15,58,20.70
2021,08,24,15,59,20.70
2021,08,24,16,00,20.60
2021,08,24,16,01,20.60
2021,08,24,16,02,20.60
2021,08,24,16,03,20.60
2021,08,24,16,04,20.60
2021,08,24,16,05,20.60
2021,08,24,16,06,20.50
2021,08,24,16,07,20.60
2021,08,24,16,08,20.60
2021,08,24,16,09,20.60
2021,08,24,16,10,20.60
2021,08,24,16,11,20.60
2021,08,24,16,12,20.60
2021,08,24,16,13,20.60
2021,08,24,16,14,20.60
2021,08,24,16,15,20.60
2021,08,24,16,16,20.60
2021,08,24,16,17,20.60
2021,08,24,16,18,20.70
2021,08,24,16,19,20.70
2021,08,24,16,20,20.70
2021,08,24,16,21,20.80
2021,08,24,16,22,20.80
2021,08,24,16,23,20.80
2021,08,24,16,24,20.90
2021,08,24,16,25,20.90
2021,08,24,16,26,20.90
2021,08,24,16,27,21.00
2021,08,24,16,28,21.00
2021,08,24,16,29,21.00
2021,08,24,16,30,21.10
2021,08,24,16,31,21.10
2021,08,24,16,32,21.10
2021,08,24,16,33,21.10
2021,08,24,16,34,21.20
2021,08,24,16,35,21.30
2021,08,24,16,36,21.40
2021,08,24,16,37,21.40
2021,08,24,16,38,21.50
2021,08,24,16,39,21.60
2021,08,24,16,40,21.60
2021,08,24,16,41,21.50
2021,08,24,16,42,21.60
2021,08,24,16,43,21.50
2021,08,24,16,44,21.50
2021,08,24,16,45,21.40
2021,08,24,16,46,21.40
2021,08,24,16,47,21.40
2021,08,24,16,48,21.30
2021,08,24,16,49,21.30
2021,08,24,16,50,21.30
2021,08,24,16,51,21.30
2021,08,24,16,52,21.30
2021,08,24,16,53,21.30
2021,08,24,16,54,21.40
2021,08,24,16,55,21.40
2021,08,24,16,56,21.40
2021,08,24,16,57,21.40
2021,08,24,16,58,21.50
2021,08,24,16,59,21.50
2021,08,24,17,00,21.60
2021,08,24,17,01,21.60
2021,08,24,17,02,21.60
2021,08,24,17,03,21.60
2021,08,24,17,04,21.50
2021,08,24,17,05,21.50
2021,08,24,17,06,21.40
2021,08,24,17,07,21.40
2021,08,24,17,08,21.40
2021,08,24,17,09,21.40
2021,08,24,17,10,21.30
2021,08,24,17,11,21.30
2021,08,24,17,12,21.30
2021,08,24,17,13,21.30
2021,08,24,17,14,21.30
2021,08,24,17,15,21.30
2021,08,24,17,16,21.40
2021,08,24,17,17,21.40
2021,08,24,17,18,21.40
2021,08,24,17,19,21.40
2021,08,24,17,20,21.50
2021,08,24,17,21,21.50
2021,08,24,17,22,21.60
2021,08,24,17,23,21.60
2021,08,24,17,24,21.60
2021,08,24,17,25,21.60
2021,08,24,17,26,21.70
2021,08,24,17,27,21.70